Simultaneous Nadir Overpasses (SNOs) Predictions

Prediction of SNOs between AQUA and NOAA-19 Satellite Orbit:

Table of predicted SNOs for the next 14.0 days since TLE Epoch: 1/20/2012
Index Date Time (AQUA) AQUA Lat,Lon NOAA-19 Lat,Lon Distance(km) Time Diff (sec)
1 01/21/2012 00:48:34 -51.97,-157.77 -51.97,-157.78 0.96 5
2 01/23/2012 05:31:39 -56.13, 133.24 -56.13, 133.24 0.19 37
3 01/25/2012 09:28:34 48.56,-108.99 48.56,-108.98 0.45 24
4 01/27/2012 14:11:27 53.42,-177.91 53.42,-177.89 1.20 8
5 01/29/2012 18:08:32 -45.51, -59.93 -45.51, -59.92 0.36 43
6 01/31/2012 22:51:10 -51.22,-128.69 -51.22,-128.67 1.59 11




NCC Satellite Simultaneous Nadir Overpasses (SNOs) Prediction Service
